TVF99RR LICJ-LFPO

Flight info

Callsign TVF99RR
Flight time 2h 3m
Altitude 38000
Route GIANO DCT RONAB DCT KONER DCT AOSTA DCT ORSUD DCT MOLUS DCT UNKIR DCT DJL
Aircraft B738/M-SDFGHIJRWXY/LB1

Departure

Time 2026-05-06 10:12
Airport Falcone–Borsellino Airport (LICJ)

Arrival

Time 2026-05-06 12:15
Airport Paris-Orly Airport (LFPO)
Time Latitude Longitude Altitude Speed Heading
2026-05-06 09:42 38.18591 13.10860 64 ft 0 kts 248°
2026-05-06 10:02 38.18593 13.10866 64 ft 2 kts 246°
2026-05-06 10:02 38.18602 13.10888 55 ft 3 kts 235°
2026-05-06 10:03 38.18615 13.10907 56 ft 3 kts 215°
2026-05-06 10:03 38.18631 13.10917 57 ft 3 kts 180°
2026-05-06 10:03 38.18642 13.10915 59 ft 0 kts 157°
2026-05-06 10:06 38.18631 13.10921 57 ft 4 kts 157°
2026-05-06 10:07 38.18588 13.10944 60 ft 9 kts 157°
2026-05-06 10:07 38.18520 13.10956 64 ft 11 kts 188°
2026-05-06 10:07 38.18435 13.10937 64 ft 14 kts 194°
2026-05-06 10:07 38.18374 13.10842 59 ft 16 kts 247°
2026-05-06 10:08 38.18329 13.10705 65 ft 18 kts 246°
2026-05-06 10:08 38.18272 13.10538 62 ft 24 kts 247°
2026-05-06 10:08 38.18199 13.10321 58 ft 28 kts 247°
2026-05-06 10:08 38.18120 13.10086 65 ft 30 kts 247°
2026-05-06 10:09 38.18040 13.09848 59 ft 28 kts 247°
2026-05-06 10:09 38.17964 13.09623 64 ft 27 kts 246°
2026-05-06 10:09 38.17894 13.09412 63 ft 26 kts 247°
2026-05-06 10:09 38.17825 13.09211 64 ft 24 kts 246°
2026-05-06 10:10 38.17763 13.09026 61 ft 18 kts 246°
2026-05-06 10:10 38.17700 13.08916 62 ft 12 kts 219°
2026-05-06 10:10 38.17635 13.08855 61 ft 11 kts 216°
2026-05-06 10:10 38.17572 13.08796 66 ft 11 kts 216°
2026-05-06 10:11 38.17503 13.08764 66 ft 11 kts 164°
2026-05-06 10:11 38.17494 13.08844 69 ft 11 kts 69°
2026-05-06 10:11 38.17532 13.08951 65 ft 27 kts 66°
2026-05-06 10:11 38.17703 13.09457 64 ft 97 kts 67°
2026-05-06 10:12 38.18053 13.10478 67 ft 153 kts 65°
2026-05-06 10:12 38.18505 13.11805 585 ft 162 kts 65°
2026-05-06 10:12 38.18962 13.13158 1270 ft 171 kts 68°
2026-05-06 10:12 38.19453 13.14570 1947 ft 185 kts 69°
2026-05-06 10:13 38.20006 13.16203 2327 ft 214 kts 69°
2026-05-06 10:13 38.20637 13.18051 2593 ft 240 kts 68°
2026-05-06 10:13 38.21554 13.19962 2926 ft 269 kts 44°
2026-05-06 10:13 38.23173 13.21135 3844 ft 273 kts 21°
2026-05-06 10:14 38.25033 13.21664 4782 ft 277 kts 359°
2026-05-06 10:14 38.26862 13.21008 5608 ft 279 kts 325°
2026-05-06 10:14 38.28252 13.19364 6587 ft 274 kts 311°
2026-05-06 10:14 38.29579 13.17621 7530 ft 274 kts 312°
2026-05-06 10:15 38.30930 13.15897 8406 ft 276 kts 312°
2026-05-06 10:15 38.32299 13.14166 9325 ft 278 kts 312°
2026-05-06 10:15 38.33678 13.12427 10203 ft 280 kts 312°
2026-05-06 10:15 38.35069 13.10674 10993 ft 282 kts 311°
2026-05-06 10:16 38.36476 13.08902 11794 ft 285 kts 311°
2026-05-06 10:16 38.37892 13.07118 12600 ft 288 kts 311°
2026-05-06 10:16 38.39323 13.05315 13427 ft 290 kts 310°
2026-05-06 10:16 38.40765 13.03496 14184 ft 293 kts 310°
2026-05-06 10:17 38.42222 13.01658 14861 ft 296 kts 310°
2026-05-06 10:17 38.43696 12.99797 15524 ft 300 kts 310°
2026-05-06 10:17 38.45186 12.97915 16195 ft 303 kts 310°
2026-05-06 10:17 38.46695 12.96008 16819 ft 309 kts 311°
2026-05-06 10:18 38.48271 12.94009 16971 ft 330 kts 311°
2026-05-06 10:18 38.49934 12.91899 17336 ft 343 kts 311°
2026-05-06 10:18 38.51641 12.89739 17952 ft 347 kts 311°
2026-05-06 10:18 38.53340 12.87591 18591 ft 349 kts 311°
2026-05-06 10:19 38.55073 12.85398 19182 ft 352 kts 311°
2026-05-06 10:19 38.56821 12.83183 19748 ft 355 kts 311°
2026-05-06 10:19 38.58584 12.80946 20314 ft 359 kts 311°
2026-05-06 10:19 38.60366 12.78682 20895 ft 362 kts 311°
2026-05-06 10:20 38.62160 12.76402 21484 ft 365 kts 311°
2026-05-06 10:20 38.63970 12.74100 22048 ft 369 kts 311°
2026-05-06 10:20 38.65192 12.72577 22419 ft 372 kts 314°
2026-05-06 10:20 38.67317 12.70616 22947 ft 382 kts 326°
2026-05-06 10:21 38.69678 12.68994 23517 ft 386 kts 328°
2026-05-06 10:21 38.72083 12.67411 23978 ft 390 kts 328°
2026-05-06 10:21 38.74502 12.65832 24459 ft 392 kts 328°
2026-05-06 10:21 38.76934 12.64239 24955 ft 393 kts 328°
2026-05-06 10:22 38.79373 12.62629 25440 ft 395 kts 328°
2026-05-06 10:22 38.81813 12.61006 25906 ft 396 kts 328°
2026-05-06 10:22 38.84263 12.59367 26356 ft 398 kts 328°
2026-05-06 10:22 38.86731 12.57711 26808 ft 400 kts 328°
2026-05-06 10:23 38.89173 12.56068 27250 ft 402 kts 327°
2026-05-06 10:23 38.91659 12.54392 27694 ft 404 kts 327°
2026-05-06 10:23 38.94157 12.52707 28123 ft 406 kts 327°
2026-05-06 10:23 38.96665 12.51013 28537 ft 408 kts 327°
2026-05-06 10:24 38.99183 12.49311 28950 ft 410 kts 327°
2026-05-06 10:24 39.01713 12.47600 29351 ft 412 kts 327°
2026-05-06 10:24 39.04261 12.45875 29744 ft 414 kts 327°
2026-05-06 10:24 39.06813 12.44147 30112 ft 416 kts 327°
2026-05-06 10:25 39.09382 12.42405 30433 ft 418 kts 327°
2026-05-06 10:25 39.11926 12.40680 30745 ft 419 kts 327°
2026-05-06 10:25 39.14512 12.38924 31047 ft 421 kts 327°
2026-05-06 10:25 39.17113 12.37156 31340 ft 423 kts 327°
2026-05-06 10:26 39.19719 12.35383 31633 ft 424 kts 327°
2026-05-06 10:26 39.22335 12.33603 31956 ft 425 kts 327°
2026-05-06 10:26 39.24945 12.31826 32357 ft 423 kts 327°
2026-05-06 10:26 39.27545 12.30055 32781 ft 421 kts 327°
2026-05-06 10:27 39.30135 12.28289 33188 ft 420 kts 327°
2026-05-06 10:27 39.32718 12.26525 33543 ft 419 kts 327°
2026-05-06 10:27 39.35294 12.24764 33879 ft 419 kts 327°
2026-05-06 10:27 39.37866 12.23004 34210 ft 418 kts 327°
2026-05-06 10:28 39.40427 12.21250 34529 ft 416 kts 327°
2026-05-06 10:28 39.42954 12.19518 34792 ft 416 kts 326°
2026-05-06 10:28 39.45520 12.17757 35031 ft 417 kts 326°
2026-05-06 10:28 39.48084 12.15996 35300 ft 417 kts 326°
2026-05-06 10:29 39.50642 12.14239 35611 ft 415 kts 326°
2026-05-06 10:29 39.53189 12.12488 35887 ft 415 kts 326°
2026-05-06 10:29 39.55740 12.10732 36119 ft 415 kts 326°
2026-05-06 10:29 39.58294 12.08972 36370 ft 415 kts 326°
2026-05-06 10:30 39.60836 12.07220 36639 ft 414 kts 326°
2026-05-06 10:30 39.63380 12.05465 36890 ft 413 kts 326°
2026-05-06 10:30 39.65916 12.03712 37102 ft 414 kts 326°
2026-05-06 10:30 39.68457 12.01956 37324 ft 413 kts 326°
2026-05-06 10:31 39.70994 12.00202 37596 ft 412 kts 326°
2026-05-06 10:31 39.73496 11.98469 37821 ft 412 kts 326°
2026-05-06 10:31 39.76023 11.96718 38000 ft 412 kts 326°
2026-05-06 10:31 39.78572 11.94948 38006 ft 416 kts 326°
2026-05-06 10:32 39.83725 11.91369 38030 ft 423 kts 326°
2026-05-06 10:32 39.88984 11.87789 38029 ft 431 kts 328°
2026-05-06 10:33 39.94442 11.84439 38024 ft 435 kts 329°
2026-05-06 10:33 39.99917 11.81152 38025 ft 437 kts 329°
2026-05-06 10:34 40.05423 11.77814 38006 ft 433 kts 329°
2026-05-06 10:34 40.10811 11.74520 38006 ft 425 kts 329°
2026-05-06 10:35 40.16171 11.71220 38017 ft 424 kts 328°
2026-05-06 10:35 40.21516 11.67919 38009 ft 424 kts 328°
2026-05-06 10:36 40.26822 11.64639 38013 ft 424 kts 328°
2026-05-06 10:36 40.32177 11.61324 38010 ft 425 kts 328°
2026-05-06 10:37 40.37539 11.58000 38010 ft 427 kts 328°
2026-05-06 10:37 40.42914 11.54661 38009 ft 428 kts 328°
2026-05-06 10:38 40.48319 11.51299 38007 ft 430 kts 328°
2026-05-06 10:38 40.53697 11.47947 38002 ft 432 kts 328°
2026-05-06 10:39 40.59133 11.44552 38007 ft 433 kts 328°
2026-05-06 10:39 40.64597 11.41135 38005 ft 435 kts 328°
2026-05-06 10:40 40.70072 11.37705 38007 ft 437 kts 328°
2026-05-06 10:40 40.75572 11.34252 38001 ft 438 kts 328°
2026-05-06 10:41 40.81080 11.30788 37999 ft 439 kts 328°
2026-05-06 10:41 40.86592 11.27316 37997 ft 439 kts 328°
2026-05-06 10:42 40.92108 11.23835 37995 ft 439 kts 328°
2026-05-06 10:42 40.97578 11.20375 37992 ft 438 kts 328°
2026-05-06 10:43 41.03082 11.16889 37994 ft 437 kts 328°
2026-05-06 10:44 41.11312 11.11663 37994 ft 436 kts 328°
2026-05-06 10:44 41.16784 11.08179 37995 ft 435 kts 328°
2026-05-06 10:45 41.22206 11.04721 37990 ft 435 kts 328°
2026-05-06 10:45 41.27663 11.01234 37998 ft 434 kts 328°
2026-05-06 10:46 41.33118 10.97742 37983 ft 434 kts 328°
2026-05-06 10:46 41.38560 10.94252 37988 ft 434 kts 328°
2026-05-06 10:47 41.44002 10.90755 37980 ft 435 kts 328°
2026-05-06 10:47 41.49451 10.87247 37988 ft 435 kts 328°
2026-05-06 10:48 41.54896 10.83736 37986 ft 435 kts 327°
2026-05-06 10:48 41.60310 10.80238 37982 ft 435 kts 327°
2026-05-06 10:49 41.65762 10.76708 37974 ft 435 kts 327°
2026-05-06 10:49 41.71216 10.73170 37977 ft 436 kts 327°
2026-05-06 10:50 41.76672 10.69625 37977 ft 436 kts 327°
2026-05-06 10:50 41.82145 10.66062 37965 ft 437 kts 327°
2026-05-06 10:51 41.87613 10.62495 37964 ft 437 kts 327°
2026-05-06 10:51 41.93056 10.58938 37959 ft 437 kts 327°
2026-05-06 10:52 41.98532 10.55353 37957 ft 438 kts 327°
2026-05-06 10:52 42.04015 10.51755 37955 ft 438 kts 327°
2026-05-06 10:53 42.09507 10.48146 37947 ft 438 kts 327°
2026-05-06 10:53 42.14989 10.44534 37943 ft 439 kts 327°
2026-05-06 10:54 42.20476 10.40914 37939 ft 439 kts 327°
2026-05-06 10:54 42.25933 10.37306 37936 ft 439 kts 327°
2026-05-06 10:55 42.31426 10.33667 37937 ft 439 kts 327°
2026-05-06 10:55 42.36914 10.30025 37935 ft 439 kts 327°
2026-05-06 10:56 42.42403 10.26375 37933 ft 439 kts 327°
2026-05-06 10:56 42.47536 10.22955 37931 ft 439 kts 327°
2026-05-06 10:57 42.53027 10.19288 37928 ft 439 kts 327°
2026-05-06 10:57 42.58515 10.15618 37927 ft 440 kts 327°
2026-05-06 10:58 42.63982 10.11954 37928 ft 440 kts 327°
2026-05-06 10:58 42.69475 10.08265 37924 ft 440 kts 327°
2026-05-06 10:59 42.74969 10.04568 37925 ft 440 kts 327°
2026-05-06 10:59 42.80459 10.00867 37924 ft 440 kts 327°
2026-05-06 11:00 42.85947 9.97159 37930 ft 440 kts 327°
2026-05-06 11:00 42.91410 9.93461 37929 ft 440 kts 327°
2026-05-06 11:01 42.96896 9.89741 37922 ft 440 kts 327°
2026-05-06 11:01 43.02373 9.86019 37932 ft 439 kts 327°
2026-05-06 11:02 43.07844 9.82294 37940 ft 439 kts 327°
2026-05-06 11:02 43.13304 9.78567 37937 ft 438 kts 327°
2026-05-06 11:03 43.18721 9.74863 37928 ft 438 kts 327°
2026-05-06 11:03 43.24205 9.71106 37923 ft 437 kts 327°
2026-05-06 11:04 43.29608 9.67396 37925 ft 437 kts 327°
2026-05-06 11:04 43.35054 9.63650 37924 ft 437 kts 327°
2026-05-06 11:05 43.40493 9.59900 37919 ft 438 kts 327°
2026-05-06 11:05 43.45944 9.56135 37919 ft 438 kts 327°
2026-05-06 11:06 43.51377 9.52292 37913 ft 436 kts 322°
2026-05-06 11:06 43.56434 9.47809 37920 ft 434 kts 320°
2026-05-06 11:07 43.61431 9.43133 37914 ft 435 kts 320°
2026-05-06 11:07 43.66464 9.38456 37907 ft 436 kts 320°
2026-05-06 11:08 43.71529 9.33796 37906 ft 438 kts 320°
2026-05-06 11:08 43.75755 9.29919 37901 ft 438 kts 320°
2026-05-06 11:09 43.81679 9.24480 37902 ft 440 kts 320°
2026-05-06 11:09 43.85952 9.20548 37899 ft 440 kts 320°
2026-05-06 11:10 43.91058 9.15838 37900 ft 441 kts 320°
2026-05-06 11:10 43.96169 9.11114 37893 ft 441 kts 320°
2026-05-06 11:11 44.01247 9.06411 37893 ft 442 kts 320°
2026-05-06 11:11 44.06362 9.01663 37883 ft 442 kts 320°
2026-05-06 11:12 44.11481 8.96902 37888 ft 442 kts 320°
2026-05-06 11:12 44.16585 8.92145 37882 ft 441 kts 320°
2026-05-06 11:13 44.21687 8.87379 37889 ft 441 kts 319°
2026-05-06 11:13 44.26744 8.82645 37882 ft 440 kts 319°
2026-05-06 11:14 44.31830 8.77874 37886 ft 440 kts 319°
2026-05-06 11:14 44.36910 8.73098 37882 ft 440 kts 319°
2026-05-06 11:15 44.41981 8.68320 37892 ft 440 kts 319°
2026-05-06 11:15 44.47066 8.63519 37885 ft 440 kts 319°
2026-05-06 11:16 44.52112 8.58745 37867 ft 441 kts 319°
2026-05-06 11:16 44.57212 8.53910 37866 ft 440 kts 319°
2026-05-06 11:17 44.62256 8.49117 37845 ft 440 kts 319°
2026-05-06 11:17 44.67323 8.44292 37847 ft 440 kts 319°
2026-05-06 11:18 44.72396 8.39449 37852 ft 442 kts 319°
2026-05-06 11:18 44.77490 8.34577 37846 ft 444 kts 319°
2026-05-06 11:19 44.82605 8.29674 37839 ft 445 kts 319°
2026-05-06 11:19 44.87751 8.24731 37838 ft 447 kts 319°
2026-05-06 11:20 44.92896 8.19779 37843 ft 448 kts 319°
2026-05-06 11:20 44.98017 8.14839 37835 ft 449 kts 319°
2026-05-06 11:21 45.03180 8.09848 37837 ft 449 kts 319°
2026-05-06 11:21 45.08343 8.04845 37842 ft 450 kts 319°
2026-05-06 11:22 45.13499 7.99837 37835 ft 449 kts 319°
2026-05-06 11:22 45.18654 7.94820 37836 ft 449 kts 319°
2026-05-06 11:23 45.23810 7.89789 37834 ft 449 kts 319°
2026-05-06 11:23 45.28919 7.84794 37836 ft 449 kts 319°
2026-05-06 11:24 45.34059 7.79758 37841 ft 449 kts 319°
2026-05-06 11:24 45.39203 7.74704 37959 ft 450 kts 319°
2026-05-06 11:25 45.44370 7.69616 37854 ft 453 kts 319°
2026-05-06 11:25 45.49565 7.64491 37819 ft 453 kts 319°
2026-05-06 11:26 45.54733 7.59384 37895 ft 451 kts 319°
2026-05-06 11:26 45.59912 7.54249 37860 ft 454 kts 319°
2026-05-06 11:27 45.65062 7.49132 37883 ft 454 kts 320°
2026-05-06 11:27 45.69818 7.43357 37879 ft 445 kts 308°
2026-05-06 11:28 45.73960 7.36792 37896 ft 444 kts 307°
2026-05-06 11:28 45.78186 7.30267 37894 ft 448 kts 308°
2026-05-06 11:29 45.82537 7.23830 37900 ft 450 kts 309°
2026-05-06 11:29 45.86912 7.17367 37868 ft 452 kts 309°
2026-05-06 11:30 45.91252 7.10904 37888 ft 452 kts 309°
2026-05-06 11:30 45.95611 7.04393 37897 ft 450 kts 309°
2026-05-06 11:31 45.99949 6.97900 37872 ft 450 kts 309°
2026-05-06 11:31 46.04287 6.91391 37879 ft 450 kts 309°
2026-05-06 11:32 46.08617 6.84876 37903 ft 449 kts 309°
2026-05-06 11:32 46.12943 6.78351 37895 ft 450 kts 309°
2026-05-06 11:33 46.17257 6.71828 37908 ft 450 kts 309°
2026-05-06 11:33 46.21591 6.65260 37894 ft 451 kts 309°
2026-05-06 11:34 46.25911 6.58696 37912 ft 451 kts 309°
2026-05-06 11:34 46.30203 6.52160 37910 ft 451 kts 309°
2026-05-06 11:35 46.34526 6.45563 37901 ft 451 kts 309°
2026-05-06 11:35 46.38842 6.38960 37909 ft 451 kts 309°
2026-05-06 11:36 46.43153 6.32346 37911 ft 452 kts 309°
2026-05-06 11:36 46.47467 6.25712 37915 ft 453 kts 309°
2026-05-06 11:37 46.51789 6.19047 37920 ft 454 kts 309°
2026-05-06 11:37 46.56121 6.12352 37925 ft 456 kts 309°
2026-05-06 11:38 46.60469 6.05614 37921 ft 457 kts 309°
2026-05-06 11:38 46.64813 5.98866 37916 ft 457 kts 309°
2026-05-06 11:39 46.69148 5.92117 37923 ft 456 kts 309°
2026-05-06 11:39 46.73451 5.85398 37907 ft 455 kts 309°
2026-05-06 11:40 46.77769 5.78639 37914 ft 455 kts 309°
2026-05-06 11:40 46.82008 5.71803 37902 ft 453 kts 307°
2026-05-06 11:41 46.86039 5.64731 37893 ft 452 kts 306°
2026-05-06 11:41 46.90034 5.57646 37890 ft 451 kts 306°
2026-05-06 11:42 46.94025 5.50622 37882 ft 452 kts 306°
2026-05-06 11:42 46.96047 5.47075 37720 ft 457 kts 306°
2026-05-06 11:42 46.98106 5.43465 37461 ft 463 kts 306°
2026-05-06 11:42 47.00174 5.39837 37217 ft 464 kts 307°
2026-05-06 11:43 47.02243 5.36209 36954 ft 462 kts 307°
2026-05-06 11:43 47.04292 5.32612 36700 ft 459 kts 307°
2026-05-06 11:43 47.06342 5.29007 36437 ft 459 kts 307°
2026-05-06 11:44 47.10417 5.21821 35937 ft 457 kts 307°
2026-05-06 11:44 47.12443 5.18239 35682 ft 456 kts 307°
2026-05-06 11:44 47.14470 5.14651 35444 ft 456 kts 307°
2026-05-06 11:44 47.16497 5.11059 35208 ft 457 kts 307°
2026-05-06 11:45 47.18529 5.07451 34978 ft 458 kts 307°
2026-05-06 11:45 47.20538 5.03881 34758 ft 460 kts 307°
2026-05-06 11:45 47.22582 5.00243 34517 ft 461 kts 307°
2026-05-06 11:45 47.24627 4.96599 34290 ft 462 kts 307°
2026-05-06 11:46 47.26674 4.92948 34065 ft 463 kts 307°
2026-05-06 11:46 47.28732 4.89272 33913 ft 464 kts 307°
2026-05-06 11:46 47.32847 4.81908 33866 ft 466 kts 307°
2026-05-06 11:47 47.36960 4.74526 33640 ft 468 kts 307°
2026-05-06 11:47 47.39026 4.70809 33367 ft 468 kts 307°
2026-05-06 11:47 47.41089 4.67094 32978 ft 467 kts 308°
2026-05-06 11:48 47.43156 4.63365 32214 ft 467 kts 308°
2026-05-06 11:48 47.45189 4.59694 31468 ft 468 kts 308°
2026-05-06 11:48 47.47255 4.55958 30709 ft 469 kts 308°
2026-05-06 11:48 47.49325 4.52209 29941 ft 471 kts 309°
2026-05-06 11:49 47.51389 4.48468 29338 ft 467 kts 309°
2026-05-06 11:49 47.53429 4.44765 28759 ft 461 kts 309°
2026-05-06 11:49 47.55443 4.41104 28249 ft 455 kts 308°
2026-05-06 11:49 47.57425 4.37497 27738 ft 449 kts 308°
2026-05-06 11:50 47.59380 4.33932 27214 ft 443 kts 308°
2026-05-06 11:50 47.61312 4.30405 26728 ft 438 kts 308°
2026-05-06 11:50 47.63220 4.26918 26229 ft 435 kts 308°
2026-05-06 11:50 47.65138 4.23407 25742 ft 440 kts 308°
2026-05-06 11:51 47.67068 4.19870 25258 ft 441 kts 309°
2026-05-06 11:51 47.68974 4.16371 24759 ft 440 kts 309°
2026-05-06 11:51 47.70889 4.12853 24257 ft 437 kts 309°
2026-05-06 11:51 47.72793 4.09350 23731 ft 434 kts 309°
2026-05-06 11:52 47.74682 4.05870 23197 ft 430 kts 309°
2026-05-06 11:52 47.76548 4.02428 22639 ft 426 kts 309°
2026-05-06 11:52 47.78399 3.99011 22113 ft 421 kts 309°
2026-05-06 11:52 47.80230 3.95625 21641 ft 417 kts 309°
2026-05-06 11:53 47.82040 3.92273 21141 ft 415 kts 309°
2026-05-06 11:53 47.83841 3.88934 20637 ft 412 kts 309°
2026-05-06 11:53 47.85607 3.85658 20171 ft 408 kts 309°
2026-05-06 11:53 47.87376 3.82370 19698 ft 405 kts 309°
2026-05-06 11:54 47.89132 3.79105 19231 ft 402 kts 309°
2026-05-06 11:54 47.90877 3.75854 18759 ft 399 kts 309°
2026-05-06 11:54 47.92605 3.72630 18291 ft 396 kts 309°
2026-05-06 11:54 47.94319 3.69431 17777 ft 393 kts 309°
2026-05-06 11:55 47.95445 3.67327 17433 ft 390 kts 309°
2026-05-06 11:55 47.97129 3.64176 16938 ft 385 kts 308°
2026-05-06 11:55 47.98791 3.61064 16489 ft 380 kts 308°
2026-05-06 11:55 48.00426 3.57997 16042 ft 376 kts 308°
2026-05-06 11:56 48.02048 3.54952 15591 ft 372 kts 308°
2026-05-06 11:56 48.04175 3.50956 14987 ft 368 kts 308°
2026-05-06 11:56 48.05249 3.48934 14687 ft 365 kts 308°
2026-05-06 11:56 48.06800 3.46013 14265 ft 361 kts 308°
2026-05-06 11:57 48.08353 3.43085 13825 ft 358 kts 308°
2026-05-06 11:57 48.09899 3.40166 13364 ft 357 kts 308°
2026-05-06 11:57 48.11434 3.37266 12891 ft 354 kts 308°
2026-05-06 11:57 48.12954 3.34392 12480 ft 350 kts 308°
2026-05-06 11:58 48.14461 3.31537 12160 ft 354 kts 308°
2026-05-06 11:58 48.16011 3.28598 11826 ft 363 kts 308°
2026-05-06 11:58 48.17575 3.25632 11495 ft 363 kts 308°
2026-05-06 11:58 48.19138 3.22663 11196 ft 362 kts 307°
2026-05-06 11:59 48.20720 3.19723 10938 ft 361 kts 310°
2026-05-06 11:59 48.22437 3.16994 10725 ft 359 kts 314°
2026-05-06 11:59 48.24184 3.14395 10505 ft 357 kts 314°
2026-05-06 11:59 48.25941 3.11766 10275 ft 357 kts 314°
2026-05-06 12:00 48.27609 3.09014 10029 ft 356 kts 303°
2026-05-06 12:00 48.28775 3.05746 9963 ft 356 kts 294°
2026-05-06 12:00 48.29771 3.02328 9923 ft 356 kts 292°
2026-05-06 12:00 48.30728 2.98911 9912 ft 353 kts 292°
2026-05-06 12:01 48.31675 2.95502 9910 ft 354 kts 292°
2026-05-06 12:01 48.32624 2.92071 9904 ft 354 kts 292°
2026-05-06 12:01 48.33563 2.88666 9910 ft 353 kts 292°
2026-05-06 12:01 48.34491 2.85297 9914 ft 353 kts 292°
2026-05-06 12:02 48.35399 2.82001 9905 ft 353 kts 292°
2026-05-06 12:02 48.36166 2.79212 9919 ft 353 kts 292°
2026-05-06 12:02 48.37104 2.75797 9911 ft 349 kts 292°
2026-05-06 12:02 48.38010 2.72498 9892 ft 332 kts 292°
2026-05-06 12:03 48.38871 2.69372 9898 ft 314 kts 292°
2026-05-06 12:03 48.39686 2.66408 9896 ft 298 kts 292°
2026-05-06 12:03 48.40460 2.63598 9887 ft 283 kts 292°
2026-05-06 12:03 48.41204 2.60901 9736 ft 276 kts 292°
2026-05-06 12:04 48.41936 2.58239 9440 ft 274 kts 292°
2026-05-06 12:04 48.42658 2.55588 9171 ft 273 kts 292°
2026-05-06 12:04 48.43366 2.52948 8864 ft 273 kts 292°
2026-05-06 12:04 48.44061 2.50290 8583 ft 272 kts 292°
2026-05-06 12:05 48.44735 2.47672 8315 ft 271 kts 292°
2026-05-06 12:05 48.45389 2.45095 8007 ft 270 kts 292°
2026-05-06 12:05 48.46047 2.42444 7691 ft 270 kts 292°
2026-05-06 12:05 48.46692 2.39795 7420 ft 268 kts 292°
2026-05-06 12:06 48.47326 2.37151 7115 ft 268 kts 292°
2026-05-06 12:06 48.47951 2.34501 6814 ft 268 kts 292°
2026-05-06 12:06 48.48564 2.31857 6527 ft 267 kts 292°
2026-05-06 12:06 48.49169 2.29207 6278 ft 266 kts 292°
2026-05-06 12:07 48.49762 2.26566 6028 ft 265 kts 292°
2026-05-06 12:07 48.50344 2.23938 5764 ft 264 kts 292°
2026-05-06 12:07 48.50921 2.21312 5536 ft 263 kts 292°
2026-05-06 12:07 48.51597 2.18768 5317 ft 261 kts 300°
2026-05-06 12:08 48.52428 2.16342 5099 ft 258 kts 301°
2026-05-06 12:08 48.53248 2.14002 4912 ft 253 kts 301°
2026-05-06 12:08 48.54063 2.11679 4737 ft 248 kts 302°
2026-05-06 12:08 48.54859 2.09401 4570 ft 243 kts 302°
2026-05-06 12:09 48.55634 2.07173 4442 ft 235 kts 302°
2026-05-06 12:09 48.56376 2.05038 4382 ft 224 kts 302°
2026-05-06 12:09 48.57352 2.03390 4273 ft 203 kts 331°
2026-05-06 12:09 48.58624 2.02862 4152 ft 185 kts
2026-05-06 12:10 48.59849 2.03248 4057 ft 179 kts 12°
2026-05-06 12:10 48.61051 2.03759 4001 ft 180 kts 21°
2026-05-06 12:10 48.62002 2.04930 4010 ft 177 kts 50°
2026-05-06 12:10 48.62709 2.06366 4003 ft 168 kts 50°
2026-05-06 12:11 48.63392 2.07799 3920 ft 170 kts 50°
2026-05-06 12:11 48.64055 2.09290 3709 ft 172 kts 54°
2026-05-06 12:11 48.64653 2.10869 3359 ft 176 kts 58°
2026-05-06 12:11 48.65223 2.12472 3172 ft 169 kts 57°
2026-05-06 12:12 48.65770 2.14044 2876 ft 170 kts 58°
2026-05-06 12:12 48.66304 2.15632 2590 ft 168 kts 59°
2026-05-06 12:12 48.66838 2.17223 2449 ft 171 kts 59°
2026-05-06 12:12 48.67386 2.18809 2185 ft 165 kts 58°
2026-05-06 12:13 48.67901 2.20252 2088 ft 146 kts 57°
2026-05-06 12:13 48.68391 2.21559 1878 ft 139 kts 56°
2026-05-06 12:13 48.68868 2.22865 1698 ft 144 kts 58°
2026-05-06 12:13 48.69345 2.24212 1474 ft 149 kts 57°
2026-05-06 12:14 48.69834 2.25592 1249 ft 149 kts 56°
2026-05-06 12:14 48.70295 2.26895 1049 ft 147 kts 57°
2026-05-06 12:14 48.70784 2.28243 840 ft 146 kts 53°
2026-05-06 12:14 48.71263 2.29616 664 ft 151 kts 58°
2026-05-06 12:15 48.71761 2.31025 469 ft 153 kts 57°
2026-05-06 12:15 48.72261 2.32437 295 ft 151 kts 56°
2026-05-06 12:15 48.72660 2.33563 296 ft 89 kts 61°
2026-05-06 12:15 48.72893 2.34222 292 ft 40 kts 62°
2026-05-06 12:16 48.72980 2.34502 292 ft 24 kts 75°
2026-05-06 12:16 48.73011 2.34744 290 ft 23 kts 83°
2026-05-06 12:16 48.73032 2.34977 290 ft 18 kts 82°
2026-05-06 12:16 48.73038 2.35147 291 ft 16 kts 98°
2026-05-06 12:17 48.72979 2.35276 290 ft 15 kts 142°
2026-05-06 12:17 48.72900 2.35377 290 ft 15 kts 137°
2026-05-06 12:17 48.72815 2.35448 295 ft 14 kts 165°
2026-05-06 12:17 48.72723 2.35484 290 ft 13 kts 165°
2026-05-06 12:18 48.72636 2.35522 291 ft 13 kts 163°
2026-05-06 12:18 48.72551 2.35559 292 ft 13 kts 163°
2026-05-06 12:18 48.72469 2.35596 292 ft 12 kts 163°
2026-05-06 12:18 48.72395 2.35628 292 ft 12 kts 165°
2026-05-06 12:19 48.72333 2.35698 290 ft 12 kts 106°
2026-05-06 12:19 48.72345 2.35816 293 ft 11 kts 72°
2026-05-06 12:19 48.72366 2.35928 292 ft 11 kts 75°
2026-05-06 12:19 48.72386 2.36037 291 ft 11 kts 75°
2026-05-06 12:20 48.72406 2.36146 295 ft 12 kts 74°
2026-05-06 12:20 48.72429 2.36267 292 ft 13 kts 74°
2026-05-06 12:20 48.72454 2.36402 291 ft 14 kts 75°
2026-05-06 12:20 48.72481 2.36544 292 ft 13 kts 73°
2026-05-06 12:21 48.72500 2.36649 291 ft 8 kts 74°
2026-05-06 12:21 48.72494 2.36712 290 ft 5 kts 138°
2026-05-06 12:21 48.72462 2.36707 290 ft 5 kts 203°
2026-05-06 12:21 48.72443 2.36695 290 ft 1 kts 202°
2026-05-06 12:22 48.72439 2.36693 290 ft 0 kts 201°